Regional Weather Roundup
Issued by NWS

Home | Current Version | Previous Version | Graphics & Text | Print | Product List | Glossary On
Versions: 1 2 3 4 5 6 7 8 9 10 11 12 13 14 15 16 17 18 19 20 21 22 23 24 25 26 27 28 29 30 31 32 33 34 35 36 37 38 39 40 41 42 43 44 45 46 47 48 49 50
000
ASUS43 KFSD 232110
RWRSD

WEATHER ROUNDUP FOR SOUTH DAKOTA
NATIONAL WEATHER SERVICE SIOUX FALLS SD
400 PM CDT SUN APR 23 2017

NOTE: "FAIR" INDICATES FEW OR NO CLOUDS BELOW 12,000 FEET WITH NO
SIGNIFICANT WEATHER AND/OR OBSTRUCTIONS TO VISIBILITY.


SDZ001>005-009-010-012>017-232200-
NORTHWEST AND NORTH CENTRAL SOUTH DAKOTA

CITY           SKY/WX    TMP DP  RH WIND       PRES   REMARKS
BUFFALO          N/A     52  39  61 NE15      29.70F
FAITH            N/A     64  42  44 NE8       29.72F
MOBRIDGE       MOSUNNY   67  39  35 E12G21    29.73F
$$

SDZ012>016-024>037-041>051-057-063-072>074-232200-
SOUTHWEST AND SOUTH CENTRAL SOUTH DAKOTA

CITY           SKY/WX    TMP DP  RH WIND       PRES   REMARKS
RAPID CTY ARPT SUNNY     69  41  36 N8        29.71F
PIERRE         SUNNY     76  36  23 S16G26    29.68F
CUSTER         SUNNY     64  25  22 S8        29.77F
ELLSWORTH AFB  SUNNY     66  43  42 N15       29.70  HAZE
PHILIP         SUNNY     74  36  25 SW9G17    29.68F
PINE RIDGE     CLOUDY    76  34  21 W13       29.72F
SPEARFISH      FAIR      61  43  51 NE12      29.73F
WINNER         FAIR      75  31  19 S32G43    29.75F
$$

SDZ004>011-016>023-039-040-232200-
NORTHEAST SOUTH DAKOTA

CITY           SKY/WX    TMP DP  RH WIND       PRES   REMARKS
ABERDEEN       SUNNY     69  31  24 S13       29.80F
WATERTOWN      PTSUNNY   69  33  26 S22G29    29.84F
BROOKINGS      CLOUDY    68  32  26 S20       29.85F
SISSETON         N/A     64  42  44 SE8G18    29.85F
$$

SDZ017-020-022-023-036>040-048>070-232200-
SOUTHEAST SOUTH DAKOTA

CITY           SKY/WX    TMP DP  RH WIND       PRES   REMARKS
SIOUX FALLS    CLOUDY    69  37  30 S22G31    29.87F
HURON          CLOUDY    73  31  21 SW16      29.79F
CHAMBERLAIN    MOSUNNY   74  34  22 S22G31    29.77F
MITCHELL       CLOUDY    73  26  17 S29G37    29.82F
YANKTON        PTSUNNY   72  28  20 S24G35    29.87F
$$

ABBREVIATIONS USED IN REMARKS
   TC - TEMPERATURE IN CELSIUS
  WCI - WIND CHILL INDEX
   HX - HEAT INDEX
  VSB - VISIBILITY




USA.gov is the U.S. government's official web portal to all federal, state and local government web resources and services.